FW8778 Weather Reports


time (UTC)temp
C
wind
direction
speed
KPH
gust
KPH
rain 1hr
cm
rain 24hr
cm
rain mn
cm
humidity
%
barometer
mb
20260504020015 12 359 0.0 0.0 0.00 0.00 0.00 65 1019.0
20260504014514 12 359 0.0 0.0 0.00 0.00 0.00 64 1019.2
20260504013018 12 359 0.0 0.0 0.00 0.00 0.00 64 1019.1
20260504011514 12 359 0.0 0.0 0.00 0.00 0.00 63 1019.1
20260504010013 12 359 0.0 0.0 0.00 0.00 0.00 62 1019.0
20260504004511 12 359 0.0 0.0 0.00 0.00 0.00 63 1019.0
20260504003010 12 359 0.0 0.0 0.00 0.00 0.00 63 1019.0
20260504001508 12 359 0.0 0.0 0.00 0.00 0.00 65 1019.2
20260504000017 12 359 0.0 0.0 0.00 0.00 0.00 65 1019.2
20260503234505 12 359 0.0 0.0 0.00 0.00 0.00 65 1019.3
20260503233007 12 359 0.0 0.0 0.00 0.00 0.00 66 1019.4
20260503231501 12 359 0.0 0.0 0.00 0.00 0.00 68 1019.6
20260503230103 12 359 0.0 0.0 0.00 0.00 0.00 68 1019.7
20260503224556 12 359 0.0 0.0 0.00 0.00 0.00 68 1019.7
20260503223054 12 359 0.0 0.0 0.00 0.00 0.00 69 1019.8
20260503221555 11 359 0.0 0.0 0.00 0.00 0.00 70 1019.9
20260503220049 11 359 0.0 0.0 0.00 0.00 0.00 72 1019.9
20260503214548 11 359 0.0 0.0 0.00 0.00 0.00 75 1020.0
20260503213048 11 359 0.0 0.0 0.00 0.00 0.00 75 1019.9
20260503211552 11 359 0.0 0.0 0.00 0.00 0.00 73 1019.8
20260503210047 12 359 0.0 0.0 0.00 0.00 0.00 72 1019.9
20260503204546 11 359 0.0 0.0 0.00 0.00 0.00 73 1020.0
20260503203104 11 359 0.0 0.0 0.00 0.00 0.00 74 1020.2
20260503201546 11 359 0.0 0.0 0.00 0.00 0.00 76 1020.1
20260503200045 12 359 0.0 0.0 0.00 0.00 0.00 76 1020.1
20260503194552 12 359 0.0 0.0 0.00 0.00 0.00 78 1020.0
20260503193049 12 359 0.0 0.0 0.00 0.00 0.00 79 1019.9
20260503191544 12 359 0.0 0.0 0.00 0.00 0.00 82 1019.8
20260503190047 12 359 0.0 0.0 0.00 0.00 0.00 81 1019.6
20260503184543 12 359 0.0 0.0 0.00 0.00 0.00 80 1019.4
20260503183045 13 359 0.0 0.0 0.00 0.00 0.00 79 1019.2
20260503181541 13 359 0.0 0.0 0.00 0.00 0.00 77 1019.1
20260503180040 13 359 0.0 0.0 0.00 0.00 0.00 76 1018.8
20260503174540 13 359 0.0 0.0 0.00 0.00 0.00 74 1018.8
20260503173051 14 359 0.0 0.0 0.00 0.00 0.00 73 1018.8
20260503171540 15 359 0.0 0.0 0.00 0.00 0.00 70 1018.7
20260503081518 16 359 0.0 0.0 0.00 0.00 0.00 46 1018.9
20260503071605 15 359 0.0 0.0 0.00 0.00 0.00 42 1019.5
20260503070105 15 359 0.0 0.0 0.00 0.00 0.00 41 1019.7
20260503060103 12 225 0.0 0.0 0.00 0.00 0.00 44 1019.9
20260503054546 12 359 0.0 0.0 0.00 0.00 0.00 42 1020.0
20260503053043 12 359 0.0 0.0 0.00 0.00 0.00 42 1019.9
20260503051537 11 359 0.0 0.0 0.00 0.00 0.00 44 1019.8
20260503050037 11 359 0.0 0.0 0.00 0.00 0.00 44 1019.8
20260503044535 10 359 0.0 0.0 0.00 0.00 0.00 45 1019.7
20260503043033 9 359 0.0 0.0 0.00 0.00 0.00 49 1019.9
20260503041534 9 359 0.0 0.0 0.00 0.00 0.00 48 1019.8
20260503040034 9 359 0.0 0.0 0.00 0.00 0.00 49 1019.6
20260503034532 9 359 0.0 0.0 0.00 0.00 0.00 49 1019.6
20260503033050 10 359 0.0 0.0 0.00 0.00 0.00 47 1019.6
20260503031535 9 359 0.0 0.0 0.00 0.00 0.00 48 1019.6
20260503030028 9 359 0.0 0.0 0.00 0.00 0.00 48 1019.8
20260503024528 9 359 0.0 0.0 0.00 0.00 0.00 50 1019.9
20260503023041 9 359 0.0 0.0 0.00 0.00 0.00 49 1020.0
20260503021525 9 359 0.0 0.0 0.00 0.00 0.00 48 1020.1